Location: Göttingen
(51.5413°N, 9.9158°E)
Time: 00:08:05
(UTC+02:00)

CUTE 1.7 + AOD 2 - Visible Passes

Search period start: 29 June 2022 00:00
Search period end: 09 July 2022 00:00
Orbit: 590 x 607 km, 97.7° (Epoch: 28 June)

Date Brightness Start Highest point End Pass type
(mag) Time Alt. Az. Time Alt. Az. Time Alt. Az.
30 Jun ? 03:57:42 10° ENE 03:59:30 12° E 04:01:17 10° ESE visible
01 Jul ? 04:07:52 10° NE 04:10:27 16° E 04:13:00 10° SE visible
02 Jul ? 04:18:17 10° NE 04:21:22 20° E 04:24:26 10° SE visible
08 Jul ? 03:49:57 10° E 03:50:03 10° E 03:50:10 10° E visible
